User: anonymous   Login
Location: Igri�s
(42.2144°N, 0.4320°W)
Time: 12:16:35
(UTC+00:00)
Language:

IRS-1A Rocket - Orbit

View from above orbital plane
View from above orbital plane
View from above satellite
View from above satellite

Ground track
Ground track

The orbit data is extracted from the following two-line orbital elements,

1 18961U 88021B   20296.97387979 -.00000144 +00000-0 -65064-4 0  9998
2 18961 099.2388 338.8236 0054695 109.7210 314.3041 14.00795403666735
Epoch (UTC): 22 October 2020 23:22:23
Eccentricity: 0.0054695
inclination: 99.2388°
perigee height: 851 km
apogee height: 931 km
right ascension of ascending node: 338.8236°
argument of perigee: 109.7210°
revolutions per day: 14.00795403
mean anomaly at epoch: 314.3041°
orbit number at epoch: 66673

The dashed part of the orbit path shows where the satellite is in the earth's shadow,  

DLR